Location: Mizzole
(45.4833°N, 11.0500°E)
Time: 12:58:20
(UTC+00:00)

ATLAS 5 CENTAUR R/B - Pass Details

Date: 21 October 2019
Orbit: 563 x 1096 km, 63.3° (Epoch: 19 November)

Event Time Altitude Azimuth Distance (km) Brightness Sun altitude
Rises 18:30:39 0° 295° (WNW) 2,953 6.3 -23.4°
Reaches altitude 10° 18:34:29 10° 328° (NNW) 2,158 4.8 -24.1°
Maximum altitude 18:36:16 12° 350° (N) 2,095 4.5 -24.4°
Drops below altitude 10° 18:38:07 10° 11° (N) 2,277 4.4 -24.7°
Enters shadow 18:39:04 - 20° (NNE) 2,452 4.5 -24.9°
